Powrót do katalogu

STARLINK-31462

AktywnyŁącznośćVLEO
NORAD 59466·PAYLOAD·🇺🇸 United States

Wystrzelony Apr 10, 2024 z Cape Canaveral Space Force Station

Loading…

Następne Przeloty (najbliższe 24 godziny)

TLE

ŚwieżeSource: CelesTrak SupGP

Epoka: Sep 14, 2026, 21:17 UTC

1 59466C 24068M   26257.88729167  .00061277  00000+0  22195-2 0  2570
2 59466  43.0028  45.9405 0001432 275.2595 274.0939 15.27547436    10

Śledź STARLINK-31462 w czasie rzeczywistym z AllMySat

Download on the App Store